EW5682 Weather Reports


time (UTC)temp
C
wind
direction
speed
KPH
gust
KPH
rain 1hr
cm
rain 24hr
cm
rain mn
cm
humidity
%
barometer
mb
20190419061619 12 82 0.0 4.8 0.00 0.00 0.00 66 1024.8
20190419060132 11 88 0.0 0.0 0.00 0.00 0.00 73 1024.7
20190419054538 10 88 0.0 0.0 0.00 0.00 0.00 76 1024.7
20190419053040 8 88 0.0 0.0 0.00 0.00 0.00 79 1024.7
20190419051536 8 88 0.0 0.0 0.00 0.00 0.00 76 1024.5
20190419050030 8 88 0.0 0.0 0.00 0.00 0.00 74 1024.4
20190419044522 9 88 0.0 0.0 0.00 0.00 0.00 72 1024.2
20190419043011 10 88 0.0 1.6 0.00 0.00 0.00 71 1024.1
20190419041509 10 88 0.0 1.6 0.00 0.00 0.00 69 1024.1
20190419040008 10 88 0.0 0.0 0.00 0.00 0.00 66 1024.0
20190419033249 11 88 0.0 1.6 0.00 0.00 0.00 64 1023.9
20190419031700 12 88 0.0 1.6 0.00 0.00 0.00 61 1023.9
20190419030109 12 88 0.0 1.6 0.00 0.00 0.00 58 1023.8
20190419024715 13 70 0.0 6.4 0.00 0.00 0.00 58 1023.7
20190419023129 13 61 0.0 3.2 0.00 0.00 0.00 58 1023.6
20190419021646 13 115 0.0 6.4 0.00 0.00 0.00 57 1023.6
20190419020145 13 99 0.0 6.4 0.00 0.00 0.00 57 1023.4
20190419014623 12 24 0.0 4.8 0.00 0.00 0.00 59 1023.4
20190419013133 12 53 0.0 6.4 0.00 0.00 0.00 59 1023.4
20190419011642 13 78 0.0 4.8 0.00 0.00 0.00 59 1023.4
20190419010127 13 75 0.0 6.4 0.00 0.00 0.00 59 1023.4
20190419004618 13 57 0.0 6.4 0.00 0.00 0.00 58 1023.4
20190419003106 13 78 0.0 4.8 0.00 0.00 0.00 58 1023.4
20190419001626 13 59 0.0 6.4 0.00 0.00 0.00 57 1023.4
20190419000047 13 86 0.0 4.8 0.00 0.00 0.00 57 1023.4
20190418234620 13 84 0.0 6.4 0.00 0.00 0.00 57 1023.4
20190418233119 13 56 0.0 4.8 0.00 0.00 0.00 57 1023.3
20190418231613 14 59 0.0 3.2 0.00 0.00 0.00 56 1023.3
20190418230051 15 55 0.0 3.2 0.00 0.00 0.00 55 1023.3
20190418224600 15 58 0.0 9.7 0.00 0.00 0.00 53 1023.3
20190418223118 15 59 1.6 11.3 0.00 0.00 0.00 52 1023.1
20190418221557 15 53 1.6 6.4 0.00 0.00 0.00 52 1023.1
20190418220114 16 77 1.6 9.7 0.00 0.00 0.00 52 1023.0
20190418214625 15 76 1.6 9.7 0.00 0.00 0.00 52 1022.8
20190418213056 15 65 0.0 8.0 0.00 0.00 0.00 55 1022.8
20190418211548 14 63 0.0 1.6 0.00 0.00 0.00 57 1022.8
20190418210100 13 63 0.0 0.0 0.00 0.00 0.00 59 1022.7
20190418204536 13 161 0.0 1.6 0.00 0.00 0.00 60 1022.6
20190418203021 13 161 0.0 1.6 0.00 0.00 0.00 61 1022.3
20190418201522 13 161 0.0 0.0 0.00 0.00 0.00 65 1022.3
20190418200059 13 161 0.0 0.0 0.00 0.00 0.00 65 1022.1
20190418194550 14 161 0.0 0.0 0.00 0.00 0.00 61 1022.0
20190418193025 15 161 0.0 0.0 0.00 0.00 0.00 53 1021.9
20190418191534 16 161 0.0 1.6 0.00 0.00 0.00 50 1021.9
20190418190034 17 161 0.0 0.0 0.00 0.00 0.00 48 1021.7
20190418184525 18 161 0.0 1.6 0.00 0.00 0.00 44 1021.5
20190418183014 19 162 0.0 0.0 0.00 0.00 0.00 41 1021.4
20190418181529 20 162 0.0 4.8 0.00 0.00 0.00 39 1021.3
20190418180021 20 51 0.0 6.4 0.00 0.00 0.00 39 1021.1
20190418174519 20 13 1.6 8.0 0.00 0.00 0.00 38 1021.0
20190418173014 20 83 1.6 12.9 0.00 0.00 0.00 38 1020.9
20190418171517 21 66 0.0 9.7 0.00 0.00 0.00 38 1020.9
20190418170032 21 44 1.6 9.7 0.00 0.00 0.00 37 1020.7
20190418164518 21 64 4.8 17.7 0.00 0.00 0.00 37 1020.8
20190418163019 21 48 3.2 17.7 0.00 0.00 0.00 36 1020.8
20190418161514 21 17 3.2 12.9 0.00 0.00 0.00 36 1020.8
20190418160013 21 44 3.2 17.7 0.00 0.00 0.00 36 1020.7
20190418154520 21 144 4.8 16.1 0.00 0.00 0.00 36 1020.8
20190418153048 21 42 6.4 16.1 0.00 0.00 0.00 37 1020.8
20190418151511 22 201 4.8 14.5 0.00 0.00 0.00 36 1020.8
20190418150017 21 26 1.6 16.1 0.00 0.00 0.00 39 1020.8
20190418144503 21 77 4.8 14.5 0.00 0.00 0.00 40 1020.8
20190418143002 21 63 4.8 17.7 0.00 0.00 0.00 39 1020.9
20190418141512 21 124 6.4 17.7 0.00 0.00 0.00 39 1020.9
20190418140152 21 105 4.8 14.5 0.00 0.00 0.00 39 1021.0
20190418134702 21 338 6.4 17.7 0.00 0.00 0.00 40 1021.1
20190418133233 21 88 1.6 22.5 0.00 0.00 0.00 40 1021.1
20190418131741 21 333 4.8 12.9 0.00 0.00 0.00 41 1021.1
20190418130148 21 68 6.4 16.1 0.00 0.00 0.00 41 1021.3
20190418124653 20 28 8.0 19.3 0.00 0.00 0.00 42 1021.3
20190418123211 20 106 4.8 20.9 0.00 0.00 0.00 43 1021.4
20190418121639 21 93 4.8 12.9 0.00 0.00 0.00 42 1021.4
20190418120133 20 90 1.6 19.3 0.00 0.00 0.00 43 1021.3
20190418114625 20 68 8.0 19.3 0.00 0.00 0.00 42 1021.4
20190418113243 20 24 1.6 19.3 0.00 0.00 0.00 42 1021.5
20190418111644 20 57 4.8 12.9 0.00 0.00 0.00 42 1021.6
20190418110124 20 360 1.6 11.3 0.00 0.00 0.00 45 1021.6
20190418104706 20 21 4.8 19.3 0.00 0.00 0.00 46 1021.6
20190418103130 18 69 4.8 12.9 0.00 0.00 0.00 47 1021.8
20190418101615 18 90 4.8 14.5 0.00 0.00 0.00 49 1021.9
20190418100058 18 63 4.8 14.5 0.00 0.00 0.00 49 1022.1
20190418094535 18 94 3.2 12.9 0.00 0.00 0.00 51 1022.2
20190418093059 17 11 3.2 14.5 0.00 0.00 0.00 50 1022.2
20190418091549 17 120 4.8 16.1 0.00 0.00 0.00 50 1022.2
20190418090045 17 55 3.2 12.9 0.00 0.00 0.00 50 1022.4
20190418084544 16 85 4.8 11.3 0.00 0.00 0.00 50 1022.3
20190418083036 16 59 3.2 11.3 0.00 0.00 0.00 52 1022.4
20190418081507 16 51 3.2 9.7 0.00 0.00 0.00 53 1022.2
20190418080003 15 89 1.6 6.4 0.00 0.00 0.00 54 1022.1
20190418074715 15 150 1.6 12.9 0.00 0.00 0.00 55 1022.1
20190418073241 14 44 1.6 8.0 0.00 0.00 0.00 57 1022.1
20190418071741 13 46 1.6 6.4 0.00 0.00 0.00 59 1022.0
20190418070224 13 55 1.6 8.0 0.00 0.00 0.00 60 1022.0
20190418064750 13 85 1.6 4.8 0.00 0.00 0.00 63 1021.9
20190418063055 12 90 0.0 1.6 0.00 0.00 0.00 66 1022.0